Theta_e
361 360 359 360 361 358 358 353 349 352 352 350 349 352 353 352 352 354 352 353 351 350 352 351 351 352 349 350 355 353 350 346 355 353 350 350 348 347 348 353 353 355 353
360 361 361 361 360 361 359 359 356 352 353 353 352 349 354 354 353 352 352 354 352 352 353 352 352 353 351 351 348 345 349 347 347 350 346 342 346 349 350 354 351 353 352
359 360 360 361 361 360 361 359 359 357 356 352 354 354 355 355 356 354 351 353 351 354 354 353 353 353 354 352 354 352 353 355 353 355 352 354 348 347 348 348 353 350 350
352 354 359 359 360 360 359 360 359 359 358 357 353 354 357 353 352 356 355 355 352 352 353 352 354 353 352 354 352 352 352 352 352 352 350 350 351 350 353 355 351 346 346
348 350 353 355 358 358 359 360 359 359 359 357 357 356 356 357 357 355 354 356 355 353 351 356 354 353 353 353 353 354 354 354 354 354 356 354 351 347 347 347 349 351 348
341 340 344 351 353 356 357 357 358 359 359 359 358 358 357 357 351 351 356 354 356 355 356 352 349 355 356 353 352 351 349 351 354 358 359 352 348 349 349 350 350 350 352
333 333 336 343 348 351 352 354 355 356 357 358 360 359 359 357 353 348 349 355 355 355 355 357 358 356 355 353 352 352 350 344 343 343 347 349 353 346 347 353 356 355 356
331 330 328 333 339 343 348 350 352 353 354 355 356 357 359 359 358 353 349 349 352 353 356 356 355 355 354 355 358 359 357 354 353 349 345 343 342 343 346 349 351 356 357
330 329 329 328 329 336 341 343 347 350 352 353 354 356 357 358 359 358 355 352 348 352 353 353 355 358 357 355 353 356 359 361 361 358 356 354 351 352 353 354 355 353 352
327 328 329 330 330 327 328 338 342 346 349 352 354 356 357 357 357 359 357 356 353 350 348 351 353 353 354 359 362 358 356 355 357 360 357 352 352 354 353 355 354 354 353
326 328 327 327 328 329 330 331 339 341 345 347 350 352 354 356 356 355 355 357 356 355 354 352 351 350 349 348 350 356 359 358 357 357 358 357 355 353 352 351 350 351 352
324 324 328 328 327 326 328 328 327 335 337 345 347 348 349 351 353 355 356 357 356 355 356 355 354 354 351 350 348 344 344 351 356 357 357 356 354 353 352 350 348 349 352
320 324 324 327 328 327 326 324 329 330 336 339 340 343 347 349 349 351 352 354 354 353 354 355 355 354 353 352 352 351 347 347 350 353 355 355 354 352 350 348 346 343 346
319 321 323 324 327 326 324 324 323 325 328 332 333 334 336 335 341 341 341 338 338 341 346 351 352 352 353 353 352 351 351 349 347 350 351 352 351 351 352 352 351 347 350
317 320 322 322 323 326 325 324 324 322 321 322 323 325 329 330 332 331 330 335 336 335 335 338 343 349 353 354 353 353 353 353 351 350 351 351 352 353 354 353 352 349 351
313 317 318 319 321 323 324 324 323 320 320 320 321 321 322 324 326 326 327 328 331 333 337 339 343 348 352 355 356 356 354 353 355 354 353 353 353 354 355 355 353 350 350
311 312 313 315 315 317 319 322 324 323 321 318 321 321 323 324 325 328 328 328 328 330 331 332 340 347 351 353 354 357 358 357 357 357 357 357 357 355 355 354 353 354 353
307 307 310 312 313 315 317 319 321 321 322 322 320 321 322 322 326 329 329 329 328 334 338 337 339 345 351 354 357 356 354 355 357 357 355 351 335 354 357 356 356 354 353
305 307 306 307 309 311 312 315 317 319 320 321 321 321 320 322 324 329 328 328 331 333 335 339 342 345 349 352 353 354 352 354 353 352 354 355 355 355 354 353 353 353 353
304 303 304 305 306 307 309 312 315 316 318 319 320 322 322 323 326 330 328 326 329 329 331 331 334 337 342 348 350 351 352 351 349 349 352 353 354 353 353 353 354 354 353
302 302 302 303 304 305 306 306 309 311 311 316 318 319 320 322 324 325 325 324 325 325 324 322 325 328 332 336 339 345 349 349 349 349 349 350 346 343 340 340 334 336 350
301 300 300 301 301 302 303 305 305 306 308 311 314 318 318 320 322 322 321 320 318 316 315 315 318 321 324 328 329 334 336 342 343 344 346 341 339 339 340 335 335 333 338
299 298 298 298 298 299 301 302 302 304 305 307 309 312 312 314 316 316 315 314 313 311 310 311 312 314 318 320 324 323 326 330 336 338 340 337 340 341 341 340 338 339 341
297 296 296 295 295 296 297 298 299 300 301 302 304 306 309 310 311 311 311 310 310 308 307 306 308 309 311 314 317 318 318 325 326 330 330 332 333 337 338 338 338 338 336
296 295 294 294 294 294 295 295 296 297 298 300 302 305 306 307 307 307 306 305 304 304 303 303 304 306 307 309 313 314 314 319 324 322 324 327 330 331 332 332 330 329 329
296 296 294 293 293 293 292 293 294 295 297 298 300 302 303 302 302 301 301 300 299 299 300 300 301 303 304 306 308 309 311 313 317 319 320 323 325 324 324 323 322 321 321
Wind_Speed
31 29 28 26 24 22 18 17 18 11 12 11 15 16 17 16 14 12 13 7 15 14 14 8 14 12 14 16 12 10 11 12 10 16 18 15 19 18 19 19 19 18 19
27 27 29 29 27 25 22 20 19 19 18 18 12 19 17 17 19 16 13 12 14 14 14 13 12 12 14 15 15 15 15 15 13 15 21 23 18 17 21 19 20 18 17
7 27 27 28 27 26 25 23 21 21 21 22 20 20 19 20 16 17 15 15 13 16 15 15 15 15 15 14 15 14 14 13 12 15 18 17 20 19 21 20 18 20 18
16 16 18 27 27 26 25 25 23 21 22 21 24 24 22 21 21 17 19 20 18 15 19 19 19 19 18 17 16 16 18 19 17 17 19 23 23 23 20 13 12 18 17
21 10 17 7 18 23 23 22 23 22 21 22 22 22 23 22 21 22 22 20 21 21 20 18 20 20 20 19 18 17 19 18 18 20 18 16 15 19 16 17 17 17 21
17 18 20 17 9 11 14 15 16 18 22 22 23 23 24 24 24 25 26 24 20 23 24 23 23 19 16 21 22 23 25 20 19 17 16 17 22 19 19 20 22 21 13
25 24 22 23 18 13 5 8 10 15 18 22 23 25 25 27 28 26 26 27 24 25 25 25 24 22 25 27 26 27 26 26 28 28 27 26 23 25 23 22 18 20 23
21 26 30 26 21 16 11 8 6 11 18 20 22 24 25 26 28 31 28 25 30 30 25 24 27 27 29 21 22 24 26 26 26 28 33 35 33 29 26 23 21 22 28
19 22 24 25 24 20 18 15 13 14 15 18 21 22 24 27 27 28 30 30 28 28 30 31 30 26 29 31 28 26 25 27 25 25 27 29 29 28 26 22 22 20 22
18 17 17 18 19 17 17 17 15 14 16 18 21 22 23 25 26 27 29 27 26 26 28 32 34 35 35 29 29 33 29 32 28 27 27 25 28 31 30 32 32 24 23
16 16 15 15 16 16 16 16 15 17 16 18 19 24 24 23 26 29 27 29 28 25 26 27 30 34 38 39 40 39 36 35 31 31 32 31 30 30 30 31 33 36 29
16 16 17 14 14 14 15 17 17 15 16 17 18 20 22 24 28 23 24 24 29 28 27 28 29 24 29 37 38 42 47 48 39 32 31 30 28 27 26 30 34 36 38
21 19 18 19 14 15 15 19 18 17 17 18 17 15 15 16 18 18 22 18 20 26 30 29 29 35 41 40 39 29 46 49 39 34 33 34 32 32 32 34 35 36 36
20 20 19 19 19 17 17 15 17 17 17 14 14 16 16 15 12 10 7 10 9 12 13 17 33 39 37 40 40 34 30 30 40 37 36 37 33 31 31 31 32 33 30
21 21 22 18 21 20 16 19 16 16 19 21 19 17 16 17 15 19 22 18 17 20 23 23 24 23 24 29 29 31 32 34 36 36 32 32 31 30 32 31 31 29 27
18 18 20 23 24 24 20 17 20 23 23 24 24 23 25 22 22 21 19 19 22 22 23 25 22 21 24 26 27 27 30 37 34 29 29 30 30 30 33 31 30 29 26
19 18 20 21 23 26 26 25 21 19 22 25 26 25 22 25 24 21 20 23 23 23 25 23 21 24 28 30 30 29 28 28 31 33 33 30 28 30 32 33 30 24 22
19 21 20 20 22 24 25 27 27 26 25 22 23 24 20 24 22 23 18 20 19 14 17 18 22 24 27 30 29 30 32 32 29 27 27 22 21 48 31 29 27 25 26
21 20 19 23 25 27 29 28 28 29 25 24 25 24 27 28 27 18 15 14 12 13 15 18 20 24 26 27 29 33 35 31 31 30 30 26 34 33 35 36 33 29 26
21 22 22 21 23 24 26 27 26 28 28 26 26 28 26 22 16 17 10 13 14 16 17 19 22 22 23 25 28 27 29 29 28 28 26 28 21 19 23 26 32 31 31
21 25 26 25 23 23 25 26 27 27 27 31 26 28 32 21 16 14 14 14 16 18 18 22 27 28 30 30 28 26 25 22 19 14 18 24 13 10 13 21 17 28 28
20 22 24 25 26 25 26 25 27 28 29 28 30 27 18 17 16 12 10 15 21 20 25 28 27 26 28 28 28 26 25 25 20 16 15 23 17 17 24 18 7 15 29
19 20 22 23 24 26 24 24 27 26 26 27 28 27 24 20 21 17 17 20 27 33 33 28 25 26 25 25 24 24 23 21 19 18 15 15 16 11 15 19 21 14 15
16 18 20 22 24 26 26 26 26 27 29 30 31 32 27 25 25 23 25 28 32 32 30 27 23 23 23 23 21 21 21 20 18 15 16 13 13 17 15 15 13 10 11
17 20 21 22 24 25 26 27 26 26 26 27 27 26 26 25 25 25 30 33 30 28 26 23 20 18 18 17 16 16 16 13 13 12 12 11 12 13 13 14 12 10 8
15 18 22 23 23 23 24 26 25 25 25 24 25 24 23 24 26 25 27 28 25 22 19 17 14 9 8 5 4 2 5 6 8 8 10 10 10 9 8 8 11 12 10
Wind_Direction
187 193 198 199 204 213 214 206 199 180 186 177 193 208 207 208 209 216 223 244 214 220 231 268 250 280 284 290 317 324 301 298 336 322 326 322 318 316 307 299 315 320 324
194 197 195 195 197 201 208 209 206 200 197 195 206 210 215 209 209 211 228 227 206 217 235 243 243 256 273 281 294 295 303 305 300 293 296 306 303 303 297 287 308 305 309
226 195 202 199 194 199 199 204 208 207 205 208 206 211 218 213 217 213 219 232 232 225 222 232 239 243 251 261 271 281 292 311 298 291 280 292 296 291 284 283 285 307 317
13 337 231 203 202 196 198 200 204 210 209 211 213 215 216 223 226 224 223 222 226 238 227 228 232 232 238 241 252 263 272 280 289 288 285 281 276 279 288 293 327 326 322
39 38 321 13 214 205 202 197 201 207 214 217 222 224 223 223 225 230 233 228 230 228 239 242 235 238 241 243 239 251 253 260 260 270 277 310 329 333 339 329 333 335 323
44 39 25 39 46 229 217 214 210 211 215 220 222 226 229 228 231 232 228 231 233 234 239 244 252 259 252 250 250 254 255 258 263 273 286 295 300 315 318 320 321 320 315
23 24 39 47 37 31 11 268 238 236 235 230 226 226 230 233 234 239 236 228 231 239 239 243 243 248 251 249 249 254 256 254 255 262 265 265 272 279 290 296 298 297 294
26 19 17 21 36 26 12 0 330 280 254 246 243 239 236 235 239 242 245 242 234 237 242 243 245 248 257 265 252 252 254 256 256 257 259 266 270 276 274 276 284 288 291
23 19 14 14 14 11 5 357 345 322 284 266 253 246 245 246 241 243 246 250 251 243 243 247 246 247 250 256 259 251 254 258 260 262 267 272 275 273 268 266 263 276 281
4 6 4 3 2 4 358 351 342 331 312 279 269 258 247 247 248 245 244 246 245 248 249 250 247 249 248 248 249 252 254 256 256 259 263 270 270 269 269 260 262 255 261
345 343 346 349 345 345 344 339 330 324 317 304 280 267 259 258 258 254 248 244 241 246 250 252 249 250 252 252 248 250 249 254 255 258 262 262 262 265 266 264 262 256 245
334 327 327 327 330 328 326 321 322 308 308 301 292 288 271 265 258 259 255 251 250 250 251 255 265 268 258 257 254 252 251 251 252 253 257 260 259 262 261 258 256 260 256
323 318 314 312 305 308 308 313 305 306 308 284 300 328 313 289 281 268 265 264 264 259 258 258 261 265 269 275 281 282 258 252 248 249 249 252 253 256 259 261 263 265 271
314 310 303 304 297 293 295 294 301 298 304 316 328 336 338 334 358 20 7 342 318 313 304 290 269 264 264 268 267 263 266 256 243 241 244 247 252 254 254 254 254 255 251
325 319 315 298 293 287 278 284 279 283 294 295 296 298 306 304 301 304 308 308 307 307 298 291 283 282 268 262 258 254 250 252 246 240 243 247 250 254 254 251 248 250 242
325 322 324 326 321 313 304 285 282 288 294 284 277 287 285 279 286 294 298 296 288 290 298 288 279 262 257 261 261 254 246 244 243 239 241 245 248 252 256 254 245 240 241
324 320 320 314 306 309 313 311 308 291 287 285 291 272 279 282 272 280 291 295 301 298 285 281 273 271 262 257 253 260 258 255 252 242 241 246 246 243 246 252 252 256 252
323 318 311 305 301 294 290 292 293 281 284 276 280 281 284 289 271 260 275 296 303 291 284 276 278 281 271 263 259 256 262 264 264 268 255 253 256 259 241 244 246 239 240
321 313 309 308 306 306 303 300 296 296 290 289 292 286 281 275 263 251 271 278 283 288 295 295 291 286 285 280 276 273 270 270 278 282 278 250 235 246 258 261 257 263 259
321 315 309 301 298 301 300 298 297 298 290 284 281 277 274 271 247 234 264 283 286 288 286 291 292 295 304 292 279 278 277 276 279 287 293 285 275 283 288 291 275 260 258
316 312 307 302 298 294 290 293 293 297 309 310 282 285 291 279 254 272 288 294 298 295 292 290 296 293 287 289 292 289 270 265 273 281 305 285 257 264 290 289 313 334 301
315 312 310 307 304 297 291 291 292 294 296 301 301 307 307 298 284 273 283 292 293 293 294 294 294 290 288 286 287 283 279 270 274 285 285 276 285 290 248 265 296 321 299
322 317 311 309 307 305 300 290 284 287 290 293 296 300 308 313 306 307 298 289 291 295 295 291 290 288 285 282 278 279 277 276 274 278 264 273 276 249 229 230 239 231 226
334 327 321 315 309 304 299 295 289 287 287 285 284 283 291 294 293 292 291 288 291 291 291 289 285 283 281 278 277 275 271 265 264 262 258 248 256 253 236 229 233 211 185
343 333 322 314 311 306 303 298 292 286 281 278 282 282 275 276 280 282 287 286 285 286 287 284 281 281 279 276 276 276 274 262 256 251 246 220 197 218 210 190 181 184 176
327 325 322 315 312 307 306 301 299 295 288 282 278 269 270 273 274 276 278 280 282 280 278 275 273 274 270 258 252 243 232 211 199 198 204 189 169 171 171 150 131 120 105